| time (UTC) | temp F | wind direction | speed MPH | gust MPH | rain 1hr in | rain 24hr in | rain mn in | humidity % | barometer mb |
| 20260507105120 | 71 | 245 | 0.0 | 2.0 | 0.00 | 0.12 | 0.00 | 59 | 1013.4 |
| 20260507104620 | 70 | 271 | 3.0 | 5.0 | 0.00 | 0.12 | 0.00 | 60 | 1013.6 |
| 20260507104119 | 70 | 246 | 2.0 | 5.0 | 0.00 | 0.12 | 0.00 | 59 | 1013.5 |
| 20260507103118 | 69 | 231 | 1.0 | 5.0 | 0.00 | 0.12 | 0.00 | 59 | 1013.6 |
| 20260507102618 | 68 | 226 | 2.0 | 4.0 | 0.00 | 0.12 | 0.00 | 61 | 1013.6 |
| 20260507102117 | 68 | 235 | 2.0 | 5.0 | 0.00 | 0.12 | 0.00 | 60 | 1013.7 |
| 20260507101617 | 69 | 233 | 0.0 | 0.0 | 0.00 | 0.12 | 0.00 | 59 | 1013.7 |
| 20260507101117 | 70 | 188 | 1.0 | 4.0 | 0.00 | 0.12 | 0.00 | 59 | 1013.8 |
| 20260507100616 | 70 | 232 | 1.0 | 2.0 | 0.00 | 0.14 | 0.00 | 57 | 1013.9 |
| 20260507100116 | 69 | 252 | 1.0 | 1.0 | 0.00 | 0.14 | 0.00 | 60 | 1013.9 |
| 20260507095615 | 68 | 244 | 1.0 | 3.0 | 0.00 | 0.14 | 0.00 | 60 | 1013.9 |
| 20260507095115 | 68 | 245 | 2.0 | 5.0 | 0.00 | 0.14 | 0.00 | 60 | 1013.9 |
| 20260507094615 | 68 | 231 | 1.0 | 4.0 | 0.00 | 0.14 | 0.00 | 62 | 1013.8 |
| 20260507094114 | 68 | 299 | 2.0 | 3.0 | 0.00 | 0.15 | 0.00 | 61 | 1013.9 |
| 20260507093113 | 67 | 273 | 1.0 | 2.0 | 0.00 | 0.15 | 0.00 | 65 | 1013.9 |
| 20260507092613 | 68 | 263 | 2.0 | 4.0 | 0.00 | 0.15 | 0.00 | 64 | 1013.9 |
| 20260507092113 | 68 | 271 | 2.0 | 5.0 | 0.00 | 0.15 | 0.00 | 63 | 1013.9 |
| 20260507091612 | 68 | 262 | 1.0 | 2.0 | 0.00 | 0.15 | 0.00 | 60 | 1013.8 |
| 20260507091112 | 67 | 240 | 1.0 | 3.0 | 0.00 | 0.15 | 0.00 | 65 | 1013.8 |
| 20260507090111 | 68 | 258 | 0.0 | 1.0 | 0.00 | 0.15 | 0.00 | 67 | 1013.9 |
| 20260507085610 | 69 | 236 | 1.0 | 2.0 | 0.00 | 0.15 | 0.00 | 67 | 1013.7 |
| 20260507085110 | 68 | 210 | 0.0 | 3.0 | 0.00 | 0.15 | 0.00 | 69 | 1013.8 |
| 20260507084610 | 66 | 230 | 0.0 | 3.0 | 0.00 | 0.15 | 0.00 | 73 | 1013.8 |
| 20260507084109 | 66 | 237 | 2.0 | 3.0 | 0.00 | 0.15 | 0.00 | 72 | 1013.7 |
| 20260507083609 | 65 | 226 | 0.0 | 1.0 | 0.00 | 0.15 | 0.00 | 74 | 1013.7 |
| 20260507083108 | 66 | 258 | 1.0 | 3.0 | 0.00 | 0.15 | 0.00 | 73 | 1013.8 |
| 20260507082608 | 66 | 268 | 1.0 | 2.0 | 0.00 | 0.15 | 0.00 | 73 | 1013.7 |
| 20260507082108 | 65 | 292 | 1.0 | 2.0 | 0.00 | 0.15 | 0.00 | 75 | 1013.6 |
| 20260507081607 | 64 | 252 | 0.0 | 0.0 | 0.00 | 0.15 | 0.00 | 77 | 1013.7 |
| 20260507081107 | 64 | 239 | 0.0 | 1.0 | 0.00 | 0.15 | 0.00 | 81 | 1013.7 |
| 20260507080606 | 64 | 238 | 1.0 | 1.0 | 0.00 | 0.15 | 0.00 | 80 | 1013.7 |
| 20260507080106 | 64 | 223 | 1.0 | 4.0 | 0.00 | 0.15 | 0.00 | 80 | 1013.6 |
| 20260507075605 | 63 | 233 | 0.0 | 2.0 | 0.00 | 0.15 | 0.00 | 82 | 1013.6 |
| 20260507075105 | 63 | 233 | 2.0 | 3.0 | 0.00 | 0.15 | 0.00 | 83 | 1013.6 |
| 20260507074733 | 65 | 229 | 1.0 | 2.0 | 0.00 | 0.15 | 0.00 | 80 | 1013.5 |
| 20260507074605 | 64 | 266 | 1.0 | 1.0 | 0.00 | 0.15 | 0.00 | 82 | 1013.6 |
| 20260507074104 | 65 | 229 | 1.0 | 2.0 | 0.00 | 0.15 | 0.00 | 80 | 1013.5 |
| 20260507073604 | 63 | 227 | 0.0 | 1.0 | 0.00 | 0.15 | 0.00 | 82 | 1013.5 |
| 20260507073103 | 62 | 227 | 0.0 | 3.0 | 0.00 | 0.15 | 0.00 | 87 | 1013.5 |
| 20260507072603 | 62 | 240 | 1.0 | 3.0 | 0.00 | 0.15 | 0.00 | 88 | 1013.6 |
| 20260507072103 | 62 | 236 | 3.0 | 5.0 | 0.00 | 0.15 | 0.00 | 88 | 1013.5 |
| 20260507071602 | 62 | 235 | 2.0 | 4.0 | 0.00 | 0.15 | 0.00 | 87 | 1013.3 |
| 20260507071102 | 63 | 261 | 3.0 | 4.0 | 0.00 | 0.15 | 0.00 | 84 | 1013.3 |
| 20260507070601 | 66 | 289 | 0.0 | 1.0 | 0.00 | 0.15 | 0.00 | 77 | 1013.2 |
| 20260507070101 | 65 | 344 | 0.0 | 0.0 | 0.00 | 0.15 | 0.00 | 78 | 1013.2 |
| 20260507065600 | 66 | 309 | 0.0 | 2.0 | 0.00 | 0.15 | 0.00 | 77 | 1013.2 |
| 20260507065100 | 66 | 4 | 0.0 | 1.0 | 0.00 | 0.15 | 0.00 | 77 | 1013.3 |
| 20260507064600 | 65 | 53 | 0.0 | 0.0 | 0.00 | 0.15 | 0.00 | 77 | 1013.2 |
| 20260507064059 | 64 | 53 | 2.0 | 2.0 | 0.00 | 0.15 | 0.00 | 81 | 1013.1 |
| 20260507063559 | 64 | 53 | 0.0 | 0.0 | 0.00 | 0.15 | 0.00 | 82 | 1013.1 |
| 20260507063058 | 64 | 54 | 0.0 | 1.0 | 0.00 | 0.15 | 0.00 | 81 | 1013.1 |
| 20260507062558 | 64 | 13 | 0.0 | 2.0 | 0.00 | 0.15 | 0.00 | 83 | 1013.1 |
| 20260507062058 | 66 | 275 | 0.0 | 0.0 | 0.00 | 0.15 | 0.00 | 79 | 1013.1 |
| 20260507061557 | 66 | 276 | 0.0 | 0.0 | 0.00 | 0.15 | 0.00 | 77 | 1013.1 |
| 20260507061057 | 64 | 270 | 0.0 | 0.0 | 0.00 | 0.15 | 0.00 | 82 | 1013.2 |
| 20260507060557 | 64 | 270 | 0.0 | 0.0 | 0.00 | 0.15 | 0.00 | 84 | 1013.1 |
| 20260507060057 | 63 | 270 | 0.0 | 0.0 | 0.00 | 0.15 | 0.00 | 84 | 1013.1 |
| 20260507055557 | 61 | 270 | 0.0 | 0.0 | 0.00 | 0.15 | 0.00 | 90 | 1013.0 |
| 20260507055057 | 59 | 270 | 0.0 | 0.0 | 0.00 | 0.15 | 0.00 | 93 | 1013.0 |
| 20260507054557 | 59 | 270 | 0.0 | 0.0 | 0.00 | 0.17 | 0.00 | 94 | 1012.9 |
| 20260507054056 | 58 | 270 | 0.0 | 1.0 | 0.00 | 0.17 | 0.00 | 95 | 1012.8 |
| 20260507053557 | 58 | 276 | 0.0 | 0.0 | 0.00 | 0.17 | 0.00 | 95 | 1012.8 |
| 20260507053057 | 57 | 276 | 0.0 | 0.0 | 0.00 | 0.17 | 0.00 | 96 | 1012.8 |
| 20260507052557 | 57 | 276 | 0.0 | 1.0 | 0.00 | 0.17 | 0.00 | 96 | 1012.8 |
| 20260507052057 | 57 | 276 | 1.0 | 1.0 | 0.00 | 0.17 | 0.00 | 95 | 1012.8 |
| 20260507051557 | 57 | 282 | 0.0 | 0.0 | 0.00 | 0.17 | 0.00 | 96 | 1012.7 |
| 20260507051057 | 57 | 282 | 0.0 | 0.0 | 0.00 | 0.17 | 0.00 | 96 | 1012.7 |
| 20260507050557 | 57 | 282 | 0.0 | 0.0 | 0.00 | 0.17 | 0.00 | 96 | 1012.6 |
| 20260507050057 | 57 | 282 | 0.0 | 0.0 | 0.00 | 0.17 | 0.00 | 96 | 1012.5 |
| 20260507045557 | 56 | 282 | 0.0 | 0.0 | 0.00 | 0.17 | 0.00 | 96 | 1012.6 |
| 20260507045057 | 56 | 282 | 0.0 | 0.0 | 0.00 | 0.18 | 0.00 | 96 | 1012.5 |
| 20260507044557 | 56 | 282 | 0.0 | 0.0 | 0.00 | 0.18 | 0.00 | 96 | 1012.3 |
| 20260507044057 | 56 | 282 | 0.0 | 0.0 | 0.00 | 0.18 | 0.00 | 96 | 1012.4 |
| 20260507043558 | 55 | 282 | 0.0 | 1.0 | 0.00 | 0.18 | 0.00 | 96 | 1012.3 |
| 20260507043057 | 55 | 285 | 0.0 | 0.0 | 0.00 | 0.18 | 0.00 | 96 | 1012.3 |
| 20260507042557 | 56 | 285 | 0.0 | 0.0 | 0.00 | 0.18 | 0.00 | 96 | 1012.2 |
| 20260507042057 | 56 | 285 | 0.0 | 0.0 | 0.00 | 0.18 | 0.00 | 96 | 1012.1 |
| 20260507041557 | 55 | 285 | 0.0 | 0.0 | 0.00 | 0.18 | 0.00 | 96 | 1012.1 |
| 20260507041057 | 55 | 285 | 0.0 | 0.0 | 0.00 | 0.18 | 0.00 | 96 | 1011.9 |
| 20260507040557 | 55 | 285 | 0.0 | 0.0 | 0.00 | 0.18 | 0.00 | 96 | 1011.9 |
| 20260507040057 | 55 | 285 | 0.0 | 0.0 | 0.00 | 0.18 | 0.00 | 96 | 1011.9 |
| 20260507035557 | 55 | 285 | 0.0 | 0.0 | 0.00 | 0.18 | 0.00 | 96 | 1011.9 |
| 20260507035057 | 55 | 285 | 0.0 | 0.0 | 0.00 | 0.18 | 0.00 | 96 | 1011.8 |
| 20260507034557 | 55 | 285 | 0.0 | 0.0 | 0.00 | 0.18 | 0.00 | 96 | 1011.8 |
| 20260507034057 | 55 | 285 | 0.0 | 0.0 | 0.00 | 0.18 | 0.00 | 96 | 1011.7 |
| 20260507033556 | 55 | 285 | 0.0 | 0.0 | 0.00 | 0.18 | 0.00 | 96 | 1011.7 |
| 20260507033056 | 55 | 285 | 0.0 | 0.0 | 0.00 | 0.18 | 0.00 | 96 | 1011.8 |
| 20260507032556 | 55 | 285 | 0.0 | 0.0 | 0.00 | 0.18 | 0.00 | 96 | 1011.8 |
| 20260507032055 | 55 | 285 | 0.0 | 0.0 | 0.00 | 0.18 | 0.00 | 96 | 1011.8 |
| 20260507031555 | 55 | 285 | 0.0 | 0.0 | 0.00 | 0.18 | 0.00 | 96 | 1011.8 |
| 20260507031055 | 55 | 285 | 0.0 | 0.0 | 0.00 | 0.18 | 0.00 | 96 | 1011.8 |
| 20260507030555 | 55 | 285 | 0.0 | 0.0 | 0.00 | 0.18 | 0.00 | 96 | 1011.8 |
| 20260507030055 | 55 | 285 | 0.0 | 0.0 | 0.00 | 0.18 | 0.00 | 96 | 1011.7 |
| 20260507025554 | 55 | 285 | 0.0 | 0.0 | 0.00 | 0.18 | 0.00 | 96 | 1011.7 |
| 20260507025054 | 55 | 285 | 0.0 | 0.0 | 0.00 | 0.18 | 0.00 | 96 | 1011.7 |
| 20260507024554 | 55 | 285 | 0.0 | 0.0 | 0.00 | 0.18 | 0.00 | 96 | 1011.7 |
| 20260507024054 | 56 | 285 | 0.0 | 0.0 | 0.00 | 0.18 | 0.00 | 96 | 1011.7 |
| 20260507023554 | 56 | 285 | 0.0 | 0.0 | 0.00 | 0.18 | 0.00 | 96 | 1011.7 |
| 20260507023054 | 56 | 285 | 0.0 | 0.0 | 0.00 | 0.18 | 0.00 | 96 | 1011.6 |
| 20260507022554 | 56 | 285 | 0.0 | 0.0 | 0.00 | 0.18 | 0.00 | 96 | 1011.7 |
| 20260507022054 | 56 | 285 | 0.0 | 0.0 | 0.00 | 0.18 | 0.00 | 96 | 1011.7 |
| 20260507021554 | 56 | 285 | 0.0 | 0.0 | 0.00 | 0.18 | 0.00 | 96 | 1011.6 |
| 20260507021054 | 56 | 285 | 0.0 | 0.0 | 0.00 | 0.18 | 0.00 | 96 | 1011.7 |
| 20260507020554 | 56 | 285 | 0.0 | 0.0 | 0.00 | 0.18 | 0.00 | 96 | 1011.7 |
| 20260507020054 | 57 | 285 | 0.0 | 0.0 | 0.00 | 0.18 | 0.00 | 96 | 1011.6 |
| 20260507015553 | 57 | 285 | 0.0 | 0.0 | 0.00 | 0.18 | 0.00 | 96 | 1011.6 |
| 20260507015053 | 57 | 285 | 0.0 | 0.0 | 0.00 | 0.18 | 0.00 | 96 | 1011.5 |
| 20260507014553 | 57 | 285 | 0.0 | 0.0 | 0.00 | 0.18 | 0.00 | 96 | 1011.4 |
| 20260507014053 | 57 | 285 | 0.0 | 1.0 | 0.00 | 0.18 | 0.00 | 96 | 1011.4 |
| 20260507013553 | 57 | 294 | 1.0 | 1.0 | 0.00 | 0.18 | 0.00 | 96 | 1011.6 |
| 20260507013053 | 57 | 300 | 0.0 | 0.0 | 0.00 | 0.18 | 0.00 | 96 | 1011.6 |
| 20260507012552 | 57 | 300 | 0.0 | 0.0 | 0.00 | 0.18 | 0.00 | 96 | 1011.6 |
| 20260507012052 | 57 | 294 | 0.0 | 0.0 | 0.00 | 0.18 | 0.00 | 95 | 1011.6 |
| 20260507011551 | 57 | 294 | 0.0 | 0.0 | 0.00 | 0.18 | 0.00 | 95 | 1011.6 |
| 20260507011051 | 57 | 294 | 0.0 | 2.0 | 0.00 | 0.18 | 0.00 | 95 | 1011.7 |
| 20260507010551 | 58 | 299 | 0.0 | 0.0 | 0.00 | 0.18 | 0.00 | 95 | 1011.7 |
| 20260507010051 | 58 | 299 | 0.0 | 0.0 | 0.00 | 0.18 | 0.00 | 95 | 1011.6 |
| 20260507005551 | 58 | 299 | 0.0 | 1.0 | 0.00 | 0.18 | 0.00 | 95 | 1011.6 |
| 20260507005051 | 58 | 288 | 2.0 | 3.0 | 0.00 | 0.18 | 0.00 | 95 | 1011.6 |
| 20260507004551 | 58 | 288 | 0.0 | 1.0 | 0.00 | 0.18 | 0.00 | 94 | 1011.7 |
| 20260507004051 | 58 | 354 | 0.0 | 2.0 | 0.00 | 0.18 | 0.00 | 94 | 1011.7 |
| 20260507003551 | 58 | 72 | 1.0 | 1.0 | 0.00 | 0.18 | 0.00 | 94 | 1011.6 |
| 20260507003051 | 58 | 72 | 0.0 | 0.0 | 0.00 | 0.18 | 0.00 | 94 | 1011.5 |
| 20260507002551 | 58 | 78 | 0.0 | 0.0 | 0.00 | 0.18 | 0.00 | 94 | 1011.5 |
| 20260507002051 | 58 | 81 | 2.0 | 3.0 | 0.00 | 0.18 | 0.00 | 94 | 1011.4 |
| 20260507001636 | 58 | 73 | 1.0 | 2.0 | 0.00 | 0.18 | 0.00 | 94 | 1011.4 |
| 20260507001550 | 58 | 73 | 1.0 | 2.0 | 0.00 | 0.18 | 0.00 | 94 | 1011.4 |
| 20260507001050 | 58 | 20 | 0.0 | 2.0 | 0.00 | 0.18 | 0.00 | 94 | 1011.4 |
| 20260507000550 | 58 | 24 | 0.0 | 0.0 | 0.00 | 0.18 | 0.00 | 94 | 1011.4 |
| 20260507000049 | 58 | 18 | 0.0 | 0.0 | 0.00 | 0.18 | 0.00 | 94 | 1011.6 |
| 20260506235549 | 58 | 57 | 0.0 | 0.0 | 0.00 | 0.18 | 0.00 | 94 | 1011.6 |
| 20260506235048 | 58 | 57 | 0.0 | 0.0 | 0.00 | 0.18 | 0.00 | 94 | 1011.7 |
| 20260506234548 | 58 | 57 | 0.0 | 0.0 | 0.00 | 0.18 | 0.00 | 94 | 1011.6 |
| 20260506234048 | 58 | 57 | 0.0 | 0.0 | 0.00 | 0.18 | 0.00 | 94 | 1011.7 |
| 20260506233548 | 57 | 57 | 0.0 | 0.0 | 0.00 | 0.18 | 0.00 | 94 | 1011.6 |
| 20260506233047 | 57 | 57 | 0.0 | 0.0 | 0.00 | 0.18 | 0.00 | 94 | 1011.6 |
| 20260506232546 | 57 | 57 | 1.0 | 1.0 | 0.00 | 0.18 | 0.00 | 94 | 1011.6 |
| 20260506232046 | 58 | 66 | 1.0 | 1.0 | 0.00 | 0.18 | 0.00 | 94 | 1011.5 |
| 20260506231546 | 58 | 72 | 0.0 | 0.0 | 0.00 | 0.18 | 0.00 | 94 | 1011.5 |
| 20260506231045 | 58 | 72 | 0.0 | 0.0 | 0.00 | 0.18 | 0.00 | 94 | 1011.5 |
| 20260506230545 | 58 | 72 | 0.0 | 0.0 | 0.00 | 0.18 | 0.00 | 94 | 1011.6 |
| 20260506230044 | 58 | 72 | 0.0 | 1.0 | 0.00 | 0.18 | 0.00 | 94 | 1011.5 |
| 20260506225544 | 58 | 61 | 0.0 | 0.0 | 0.00 | 0.18 | 0.00 | 94 | 1011.5 |
| 20260506225044 | 58 | 61 | 0.0 | 0.0 | 0.00 | 0.18 | 0.00 | 94 | 1011.6 |
| 20260506224543 | 58 | 61 | 0.0 | 1.0 | 0.00 | 0.18 | 0.00 | 93 | 1011.5 |
| 20260506224043 | 58 | 61 | 1.0 | 1.0 | 0.00 | 0.18 | 0.00 | 93 | 1011.5 |
| 20260506223542 | 58 | 61 | 3.0 | 4.0 | 0.00 | 0.18 | 0.00 | 93 | 1011.5 |
| 20260506223042 | 58 | 56 | 0.0 | 1.0 | 0.00 | 0.18 | 0.00 | 93 | 1011.5 |
| 20260506222541 | 58 | 56 | 0.0 | 0.0 | 0.00 | 0.18 | 0.00 | 93 | 1011.5 |
| 20260506222041 | 58 | 60 | 0.0 | 1.0 | 0.00 | 0.18 | 0.00 | 93 | 1011.6 |
| 20260506221541 | 58 | 56 | 0.0 | 0.0 | 0.00 | 0.18 | 0.00 | 93 | 1011.6 |
| 20260506221040 | 58 | 56 | 0.0 | 0.0 | 0.00 | 0.18 | 0.00 | 93 | 1011.6 |
| 20260506220540 | 58 | 56 | 0.0 | 0.0 | 0.00 | 0.18 | 0.00 | 93 | 1011.5 |
| 20260506220039 | 58 | 56 | 0.0 | 0.0 | 0.00 | 0.18 | 0.00 | 93 | 1011.4 |
| 20260506215539 | 58 | 63 | 0.0 | 0.0 | 0.00 | 0.18 | 0.18 | 93 | 1011.4 |
| 20260506214538 | 58 | 67 | 0.0 | 1.0 | 0.00 | 0.18 | 0.18 | 93 | 1011.4 |
| 20260506214038 | 59 | 72 | 0.0 | 0.0 | 0.00 | 0.18 | 0.18 | 92 | 1011.3 |
| 20260506213537 | 59 | 72 | 0.0 | 0.0 | 0.00 | 0.18 | 0.18 | 92 | 1011.3 |
| 20260506213037 | 59 | 72 | 0.0 | 0.0 | 0.00 | 0.18 | 0.18 | 92 | 1011.4 |
| 20260506212537 | 59 | 70 | 0.0 | 1.0 | 0.00 | 0.18 | 0.18 | 92 | 1011.4 |
| 20260506211536 | 59 | 70 | 0.0 | 1.0 | 0.00 | 0.18 | 0.18 | 92 | 1011.5 |
| 20260506211035 | 59 | 70 | 0.0 | 2.0 | 0.00 | 0.18 | 0.18 | 92 | 1011.4 |
| 20260506210535 | 59 | 70 | 0.0 | 1.0 | 0.00 | 0.18 | 0.18 | 92 | 1011.3 |
| 20260506210034 | 59 | 70 | 0.0 | 1.0 | 0.00 | 0.18 | 0.18 | 92 | 1011.3 |
| 20260506205534 | 59 | 70 | 0.0 | 2.0 | 0.00 | 0.18 | 0.18 | 91 | 1011.3 |
| 20260506204533 | 60 | 73 | 2.0 | 3.0 | 0.00 | 0.18 | 0.18 | 91 | 1011.2 |
| 20260506204033 | 60 | 76 | 2.0 | 4.0 | 0.00 | 0.18 | 0.18 | 91 | 1011.4 |
| 20260506203532 | 60 | 69 | 1.0 | 2.0 | 0.00 | 0.18 | 0.18 | 91 | 1011.4 |
| 20260506203032 | 60 | 69 | 0.0 | 1.0 | 0.00 | 0.18 | 0.18 | 92 | 1011.3 |
| 20260506202532 | 60 | 69 | 1.0 | 3.0 | 0.00 | 0.18 | 0.18 | 91 | 1011.3 |
| 20260506202031 | 60 | 73 | 1.0 | 3.0 | 0.00 | 0.18 | 0.18 | 91 | 1011.2 |
| 20260506201531 | 60 | 81 | 1.0 | 3.0 | 0.00 | 0.18 | 0.18 | 92 | 1011.2 |
| 20260506201030 | 60 | 76 | 2.0 | 3.0 | 0.00 | 0.18 | 0.18 | 92 | 1011.1 |
| 20260506200530 | 60 | 294 | 0.0 | 1.0 | 0.00 | 0.18 | 0.18 | 92 | 1011.1 |
| 20260506200029 | 60 | 45 | 0.0 | 1.0 | 0.00 | 0.18 | 0.18 | 92 | 1011.0 |
| 20260506195529 | 60 | 42 | 1.0 | 2.0 | 0.00 | 0.18 | 0.18 | 92 | 1010.9 |
| 20260506194528 | 60 | 62 | 1.0 | 2.0 | 0.00 | 0.18 | 0.18 | 92 | 1010.9 |
| 20260506194028 | 60 | 67 | 0.0 | 1.0 | 0.00 | 0.18 | 0.18 | 92 | 1010.8 |
| 20260506193527 | 60 | 66 | 0.0 | 1.0 | 0.00 | 0.18 | 0.18 | 92 | 1010.8 |
| 20260506193027 | 61 | 70 | 0.0 | 1.0 | 0.00 | 0.18 | 0.18 | 92 | 1010.8 |
| 20260506192526 | 61 | 71 | 2.0 | 5.0 | 0.00 | 0.18 | 0.18 | 92 | 1010.7 |
| 20260506192026 | 61 | 72 | 0.0 | 1.0 | 0.00 | 0.18 | 0.18 | 92 | 1010.7 |
| 20260506191526 | 61 | 71 | 0.0 | 2.0 | 0.00 | 0.18 | 0.18 | 92 | 1010.7 |
| 20260506191025 | 61 | 76 | 2.0 | 3.0 | 0.00 | 0.18 | 0.18 | 92 | 1010.7 |
| 20260506190525 | 61 | 67 | 2.0 | 4.0 | 0.00 | 0.18 | 0.18 | 92 | 1010.7 |
| 20260506190024 | 61 | 69 | 0.0 | 1.0 | 0.00 | 0.18 | 0.18 | 91 | 1010.6 |
| 20260506185524 | 61 | 66 | 1.0 | 3.0 | 0.00 | 0.18 | 0.18 | 91 | 1010.5 |
| 20260506185024 | 62 | 78 | 2.0 | 3.0 | 0.00 | 0.18 | 0.18 | 91 | 1010.4 |
| 20260506184523 | 62 | 77 | 1.0 | 2.0 | 0.00 | 0.18 | 0.18 | 91 | 1010.5 |
| 20260506184023 | 62 | 57 | 4.0 | 4.0 | 0.00 | 0.18 | 0.18 | 90 | 1010.3 |
| 20260506183522 | 62 | 65 | 4.0 | 5.0 | 0.00 | 0.18 | 0.18 | 90 | 1010.2 |
| 20260506183023 | 62 | 64 | 5.0 | 6.0 | 0.00 | 0.18 | 0.18 | 90 | 1010.2 |
| 20260506182522 | 62 | 68 | 2.0 | 3.0 | 0.00 | 0.18 | 0.18 | 90 | 1010.2 |
| 20260506182021 | 62 | 59 | 0.0 | 1.0 | 0.00 | 0.18 | 0.18 | 90 | 1010.4 |
| 20260506181521 | 63 | 62 | 0.0 | 1.0 | 0.00 | 0.18 | 0.18 | 90 | 1010.3 |
| 20260506181020 | 63 | 63 | 0.0 | 1.0 | 0.00 | 0.18 | 0.18 | 90 | 1010.3 |
| 20260506180520 | 63 | 64 | 0.0 | 1.0 | 0.00 | 0.18 | 0.18 | 89 | 1010.3 |
| 20260506180019 | 63 | 64 | 0.0 | 1.0 | 0.00 | 0.18 | 0.18 | 89 | 1010.1 |
| 20260506175519 | 63 | 63 | 0.0 | 2.0 | 0.00 | 0.18 | 0.18 | 89 | 1010.1 |
| 20260506175019 | 63 | 64 | 0.0 | 1.0 | 0.00 | 0.18 | 0.18 | 89 | 1010.0 |
| 20260506174518 | 63 | 75 | 2.0 | 4.0 | 0.00 | 0.18 | 0.18 | 88 | 1010.0 |
| 20260506174018 | 63 | 63 | 0.0 | 2.0 | 0.00 | 0.18 | 0.18 | 88 | 1009.8 |
| 20260506173517 | 63 | 75 | 1.0 | 3.0 | 0.00 | 0.18 | 0.18 | 88 | 1009.8 |
| 20260506173018 | 63 | 76 | 3.0 | 4.0 | 0.00 | 0.18 | 0.18 | 87 | 1009.9 |
| 20260506172517 | 63 | 77 | 1.0 | 3.0 | 0.00 | 0.18 | 0.18 | 87 | 1009.8 |
| 20260506171516 | 63 | 57 | 0.0 | 1.0 | 0.00 | 0.18 | 0.18 | 87 | 1009.9 |
| 20260506171015 | 63 | 71 | 0.0 | 1.0 | 0.00 | 0.18 | 0.18 | 87 | 1009.8 |
| 20260506170515 | 63 | 76 | 0.0 | 1.0 | 0.00 | 0.18 | 0.18 | 87 | 1009.8 |
| 20260506170015 | 63 | 76 | 0.0 | 1.0 | 0.00 | 0.18 | 0.18 | 87 | 1009.7 |
| 20260506165514 | 63 | 76 | 1.0 | 2.0 | 0.00 | 0.18 | 0.18 | 86 | 1009.8 |
| 20260506165014 | 63 | 78 | 0.0 | 1.0 | 0.00 | 0.18 | 0.18 | 86 | 1009.8 |
| 20260506164513 | 63 | 72 | 2.0 | 3.0 | 0.00 | 0.18 | 0.18 | 85 | 1009.7 |
| 20260506164013 | 63 | 79 | 0.0 | 1.0 | 0.00 | 0.18 | 0.18 | 85 | 1009.8 |
| 20260506163512 | 63 | 79 | 0.0 | 1.0 | 0.00 | 0.18 | 0.18 | 85 | 1009.8 |
| 20260506163012 | 63 | 79 | 2.0 | 3.0 | 0.00 | 0.18 | 0.18 | 85 | 1010.0 |
| 20260506162512 | 63 | 72 | 0.0 | 3.0 | 0.00 | 0.18 | 0.18 | 84 | 1010.0 |
| 20260506162011 | 64 | 65 | 0.0 | 1.0 | 0.00 | 0.18 | 0.18 | 84 | 1009.9 |
| 20260506161511 | 64 | 65 | 1.0 | 1.0 | 0.00 | 0.18 | 0.18 | 86 | 1010.1 |
| 20260506161010 | 64 | 87 | 0.0 | 1.0 | 0.00 | 0.18 | 0.18 | 87 | 1009.9 |
| 20260506160510 | 64 | 88 | 0.0 | 2.0 | 0.00 | 0.18 | 0.18 | 88 | 1009.9 |
| 20260506160010 | 64 | 88 | 1.0 | 1.0 | 0.00 | 0.18 | 0.18 | 88 | 1009.8 |
| 20260506155509 | 64 | 79 | 2.0 | 4.0 | 0.00 | 0.18 | 0.18 | 88 | 1009.9 |
| 20260506155009 | 64 | 69 | 0.0 | 3.0 | 0.00 | 0.18 | 0.18 | 88 | 1010.0 |
| 20260506154508 | 63 | 65 | 3.0 | 5.0 | 0.00 | 0.18 | 0.18 | 89 | 1009.9 |
| 20260506154008 | 63 | 56 | 1.0 | 3.0 | 0.00 | 0.18 | 0.18 | 88 | 1009.9 |
| 20260506153507 | 64 | 76 | 0.0 | 0.0 | 0.00 | 0.18 | 0.18 | 88 | 1009.9 |
| 20260506153007 | 64 | 78 | 0.0 | 1.0 | 0.00 | 0.18 | 0.18 | 89 | 1009.9 |
| 20260506152507 | 63 | 78 | 0.0 | 1.0 | 0.00 | 0.18 | 0.18 | 89 | 1010.0 |
| 20260506152006 | 63 | 89 | 2.0 | 3.0 | 0.00 | 0.18 | 0.18 | 89 | 1009.8 |
| 20260506151506 | 63 | 101 | 0.0 | 2.0 | 0.00 | 0.18 | 0.18 | 89 | 1009.9 |
| 20260506151006 | 63 | 75 | 2.0 | 4.0 | 0.00 | 0.18 | 0.18 | 89 | 1009.9 |
| 20260506150506 | 63 | 75 | 3.0 | 4.0 | 0.00 | 0.18 | 0.18 | 89 | 1009.9 |
| 20260506150006 | 63 | 62 | 0.0 | 1.0 | 0.00 | 0.18 | 0.18 | 89 | 1010.0 |
| 20260506145506 | 63 | 62 | 0.0 | 1.0 | 0.00 | 0.18 | 0.18 | 90 | 1010.1 |
| 20260506145006 | 63 | 74 | 2.0 | 2.0 | 0.00 | 0.18 | 0.18 | 91 | 1010.1 |
| 20260506144506 | 63 | 74 | 2.0 | 3.0 | 0.00 | 0.18 | 0.18 | 90 | 1010.1 |
| 20260506144006 | 63 | 66 | 0.0 | 1.0 | 0.01 | 0.18 | 0.18 | 91 | 1010.1 |
| 20260506143505 | 62 | 66 | 0.0 | 2.0 | 0.01 | 0.18 | 0.18 | 91 | 1010.1 |
| 20260506143005 | 62 | 67 | 1.0 | 3.0 | 0.03 | 0.18 | 0.18 | 91 | 1010.1 |
| 20260506142505 | 62 | 79 | 0.0 | 3.0 | 0.04 | 0.18 | 0.18 | 92 | 1010.0 |
| 20260506142005 | 62 | 83 | 1.0 | 3.0 | 0.04 | 0.18 | 0.18 | 92 | 1010.0 |
| 20260506141505 | 62 | 74 | 3.0 | 5.0 | 0.06 | 0.18 | 0.18 | 92 | 1010.0 |
| 20260506141005 | 62 | 75 | 2.0 | 4.0 | 0.07 | 0.18 | 0.18 | 93 | 1010.0 |
| 20260506140505 | 62 | 69 | 0.0 | 6.0 | 0.11 | 0.18 | 0.18 | 93 | 1010.1 |
| 20260506140005 | 61 | 82 | 2.0 | 5.0 | 0.12 | 0.20 | 0.18 | 94 | 1010.1 |
| 20260506135505 | 61 | 68 | 0.0 | 1.0 | 0.12 | 0.20 | 0.18 | 94 | 1010.1 |
| 20260506135005 | 61 | 68 | 0.0 | 1.0 | 0.12 | 0.20 | 0.18 | 94 | 1010.2 |
| 20260506134505 | 61 | 82 | 0.0 | 3.0 | 0.12 | 0.20 | 0.18 | 93 | 1010.3 |
| 20260506133505 | 61 | 76 | 1.0 | 3.0 | 0.11 | 0.18 | 0.17 | 93 | 1010.5 |
| 20260506133005 | 61 | 79 | 2.0 | 3.0 | 0.09 | 0.17 | 0.15 | 92 | 1010.5 |
| 20260506132505 | 61 | 90 | 2.0 | 4.0 | 0.07 | 0.15 | 0.14 | 92 | 1010.5 |
| 20260506132005 | 61 | 76 | 2.0 | 5.0 | 0.07 | 0.15 | 0.14 | 92 | 1010.6 |
| 20260506131505 | 62 | 86 | 2.0 | 5.0 | 0.06 | 0.14 | 0.12 | 91 | 1010.6 |
| 20260506131005 | 62 | 97 | 1.0 | 3.0 | 0.04 | 0.12 | 0.11 | 91 | 1010.6 |
| 20260506130505 | 63 | 81 | 2.0 | 5.0 | 0.01 | 0.09 | 0.07 | 88 | 1010.6 |
| 20260506130014 | 63 | 69 | 2.0 | 4.0 | 0.00 | 0.07 | 0.06 | 86 | 1010.7 |
| 20260506130006 | 63 | 69 | 2.0 | 4.0 | 0.00 | 0.07 | 0.06 | 86 | 1010.7 |
| 20260506125505 | 63 | 109 | 0.0 | 2.0 | 0.00 | 0.07 | 0.06 | 87 | 1010.6 |
| 20260506125005 | 63 | 129 | 0.0 | 1.0 | 0.00 | 0.07 | 0.06 | 87 | 1010.7 |
| 20260506124505 | 63 | 102 | 0.0 | 1.0 | 0.00 | 0.07 | 0.06 | 87 | 1010.6 |
| 20260506124005 | 64 | 76 | 3.0 | 4.0 | 0.00 | 0.07 | 0.06 | 85 | 1010.7 |
| 20260506123505 | 64 | 107 | 1.0 | 3.0 | 0.00 | 0.09 | 0.06 | 83 | 1010.7 |
| 20260506123005 | 64 | 81 | 0.0 | 2.0 | 0.00 | 0.09 | 0.06 | 83 | 1010.7 |
| 20260506122505 | 64 | 91 | 2.0 | 6.0 | 0.00 | 0.09 | 0.06 | 81 | 1010.8 |
| 20260506122005 | 64 | 81 | 1.0 | 3.0 | 0.00 | 0.09 | 0.06 | 82 | 1010.8 |
| 20260506121504 | 65 | 84 | 2.0 | 4.0 | 0.00 | 0.09 | 0.06 | 81 | 1010.7 |
| 20260506121004 | 64 | 78 | 2.0 | 4.0 | 0.00 | 0.09 | 0.06 | 82 | 1010.7 |
| 20260506120504 | 64 | 69 | 2.0 | 5.0 | 0.00 | 0.09 | 0.06 | 83 | 1010.8 |
| 20260506120004 | 64 | 71 | 4.0 | 6.0 | 0.00 | 0.09 | 0.06 | 82 | 1010.8 |
| 20260506115504 | 64 | 70 | 2.0 | 5.0 | 0.00 | 0.09 | 0.06 | 83 | 1011.0 |
| 20260506115004 | 63 | 85 | 1.0 | 3.0 | 0.00 | 0.09 | 0.06 | 83 | 1011.0 |
| 20260506114504 | 64 | 80 | 2.0 | 5.0 | 0.00 | 0.09 | 0.06 | 83 | 1011.1 |
| 20260506114004 | 64 | 70 | 2.0 | 3.0 | 0.00 | 0.09 | 0.06 | 82 | 1011.1 |
| 20260506113504 | 63 | 70 | 2.0 | 4.0 | 0.00 | 0.09 | 0.06 | 83 | 1011.0 |
| 20260506113004 | 63 | 73 | 1.0 | 1.0 | 0.00 | 0.09 | 0.06 | 83 | 1011.2 |
| 20260506112504 | 63 | 70 | 1.0 | 3.0 | 0.00 | 0.09 | 0.06 | 83 | 1011.3 |
| 20260506112004 | 63 | 82 | 1.0 | 3.0 | 0.00 | 0.09 | 0.06 | 85 | 1011.3 |
| 20260506111503 | 63 | 62 | 0.0 | 1.0 | 0.00 | 0.09 | 0.06 | 84 | 1011.4 |
| 20260506111003 | 63 | 111 | 0.0 | 1.0 | 0.00 | 0.09 | 0.06 | 84 | 1011.4 |
| 20260506110503 | 62 | 105 | 0.0 | 2.0 | 0.01 | 0.09 | 0.06 | 86 | 1011.5 |
| 20260506110003 | 62 | 16 | 1.0 | 2.0 | 0.01 | 0.09 | 0.06 | 88 | 1011.4 |
| 20260506105503 | 62 | 95 | 1.0 | 3.0 | 0.01 | 0.09 | 0.06 | 88 | 1011.5 |